Time,TemperatureF,DewpointF,PressureIn,WindDirection,WindDirectionDegrees,WindSpeedMPH,WindSpeedGustMPH,Humidity,HourlyPrecipIn,Conditions,Clouds,dailyrainin,SoftwareType,DateUTC
2013-09-02 00:01:00,73.6,50.9,29.90,NE,41,0.0,0.0,45,0.00,RA,,0.00,WeatherDisplay:10.37,2013-09-02 04:01:00,
2013-09-02 00:04:00,73.8,51.1,29.90,NE,41,0.0,0.0,45,0.00,RA,,0.00,WeatherDisplay:10.37,2013-09-02 04:04:00,
2013-09-02 00:08:00,73.8,51.1,29.90,NE,41,0.0,0.0,45,0.00,RA,,0.00,WeatherDisplay:10.37,2013-09-02 04:08:00,
2013-09-02 00:13:00,73.8,51.1,29.90,NE,41,0.0,0.0,45,0.00,CLR,,0.00,WeatherDisplay:10.37,2013-09-02 04:13:00,
2013-09-02 00:18:00,73.8,51.1,29.90,ESE,107,0.0,0.0,45,0.00,CLR,,0.00,WeatherDisplay:10.37,2013-09-02 04:18:00,
2013-09-02 00:23:00,73.6,50.9,29.90,SSE,161,0.0,0.0,45,0.00,CLR,,0.00,WeatherDisplay:10.37,2013-09-02 04:23:00,
2013-09-02 00:28:00,73.8,51.1,29.90,ESE,107,0.0,0.0,45,0.00,CLR,,0.00,WeatherDisplay:10.37,2013-09-02 04:28:00,
2013-09-02 00:33:00,73.8,51.1,29.90,NE,34,0.0,0.0,45,0.00,CLR,,0.00,WeatherDisplay:10.37,2013-09-02 04:33:00,
2013-09-02 00:38:00,73.8,51.1,29.90,NE,34,0.0,0.0,45,0.00,CLR,,0.00,WeatherDisplay:10.37,2013-09-02 04:38:00,
2013-09-02 00:43:00,73.8,50.5,29.90,NE,34,0.0,0.0,44,0.00,CLR,,0.00,WeatherDisplay:10.37,2013-09-02 04:43:00,
2013-09-02 00:48:00,73.6,50.9,29.90,NE,43,0.0,0.0,45,0.00,CLR,,0.00,WeatherDisplay:10.37,2013-09-02 04:48:00,
2013-09-02 00:53:00,73.6,50.9,29.90,NE,43,0.0,0.0,45,0.00,CLR,,0.00,WeatherDisplay:10.37,2013-09-02 04:53:00,
2013-09-02 00:58:00,73.6,50.9,29.90,NE,43,0.0,0.0,45,0.00,CLR,,0.00,WeatherDisplay:10.37,2013-09-02 04:58:00,
2013-09-02 01:03:00,73.6,50.9,29.87,ENE,62,0.0,0.0,45,0.00,CLR,,0.00,WeatherDisplay:10.37,2013-09-02 05:03:00,
2013-09-02 01:08:00,73.6,50.9,29.87,East,98,2.2,0.0,45,0.00,CLR,,0.00,WeatherDisplay:10.37,2013-09-02 05:08:00,
2013-09-02 01:13:00,73.4,50.8,29.87,East,98,0.0,0.0,45,0.00,CLR,,0.00,WeatherDisplay:10.37,2013-09-02 05:13:00,
2013-09-02 01:18:00,73.4,50.8,29.87,East,98,0.0,0.0,45,0.00,CLR,,0.00,WeatherDisplay:10.37,2013-09-02 05:18:00,
2013-09-02 01:23:00,73.4,50.8,29.87,East,98,0.0,0.0,45,0.00,CLR,,0.00,WeatherDisplay:10.37,2013-09-02 05:23:00,
2013-09-02 01:28:00,73.4,50.8,29.87,East,98,0.0,0.0,45,0.00,CLR,,0.00,WeatherDisplay:10.37,2013-09-02 05:28:00,
2013-09-02 01:33:00,73.4,50.8,29.87,East,98,0.0,0.0,45,0.00,CLR,,0.00,WeatherDisplay:10.37,2013-09-02 05:33:00,
2013-09-02 01:38:00,73.4,50.8,29.87,East,98,0.0,0.0,45,0.00,CLR,,0.00,WeatherDisplay:10.37,2013-09-02 05:38:00,
2013-09-02 01:43:00,73.4,50.8,29.87,East,98,0.0,0.0,45,0.00,CLR,,0.00,WeatherDisplay:10.37,2013-09-02 05:43:00,
2013-09-02 01:48:00,73.4,50.8,29.87,East,98,0.0,0.0,45,0.00,CLR,,0.00,WeatherDisplay:10.37,2013-09-02 05:48:00,
2013-09-02 01:53:00,73.2,50.6,29.87,East,98,0.0,0.0,45,0.00,CLR,,0.00,WeatherDisplay:10.37,2013-09-02 05:53:00,
2013-09-02 01:58:00,73.0,50.4,29.87,East,98,0.0,0.0,45,0.00,CLR,,0.00,WeatherDisplay:10.37,2013-09-02 05:58:00,
2013-09-02 02:03:00,73.0,50.4,29.87,East,98,0.0,0.0,45,0.00,CLR,,0.00,WeatherDisplay:10.37,2013-09-02 06:03:00,
2013-09-02 02:08:00,72.9,50.3,29.87,East,98,3.5,0.0,45,0.00,CLR,,0.00,WeatherDisplay:10.37,2013-09-02 06:08:00,
2013-09-02 02:13:00,72.9,50.3,29.87,East,98,0.0,0.0,45,0.00,CLR,,0.00,WeatherDisplay:10.37,2013-09-02 06:13:00,
2013-09-02 02:18:00,72.9,50.3,29.87,East,98,0.0,0.0,45,0.00,CLR,,0.00,WeatherDisplay:10.37,2013-09-02 06:18:00,
2013-09-02 02:23:00,72.7,50.7,29.87,East,98,0.0,0.0,46,0.00,CLR,,0.00,WeatherDisplay:10.37,2013-09-02 06:23:00,
2013-09-02 02:28:00,72.7,50.7,29.87,East,98,0.0,0.0,46,0.00,CLR,,0.00,WeatherDisplay:10.37,2013-09-02 06:28:00,
2013-09-02 02:33:00,72.7,50.7,29.87,East,98,0.0,0.0,46,0.00,CLR,,0.00,WeatherDisplay:10.37,2013-09-02 06:33:00,
2013-09-02 02:38:00,72.7,50.7,29.87,North,353,0.0,0.0,46,0.00,CLR,,0.00,WeatherDisplay:10.37,2013-09-02 06:38:00,
2013-09-02 02:43:00,72.9,50.9,29.87,North,353,0.0,0.0,46,0.00,CLR,,0.00,WeatherDisplay:10.37,2013-09-02 06:43:00,
2013-09-02 02:48:00,72.9,50.9,29.87,North,353,0.0,0.0,46,0.00,CLR,,0.00,WeatherDisplay:10.37,2013-09-02 06:48:00,
2013-09-02 02:53:00,72.9,50.9,29.87,North,353,0.0,0.0,46,0.00,CLR,,0.00,WeatherDisplay:10.37,2013-09-02 06:53:00,
2013-09-02 02:58:00,73.0,51.0,29.87,North,353,0.0,0.0,46,0.00,CLR,,0.00,WeatherDisplay:10.37,2013-09-02 06:58:00,
2013-09-02 03:03:00,73.0,51.0,29.87,North,353,0.0,0.0,46,0.00,CLR,,0.00,WeatherDisplay:10.37,2013-09-02 07:03:00,
2013-09-02 03:08:00,73.0,51.0,29.87,North,353,0.0,0.0,46,0.00,CLR,,0.00,WeatherDisplay:10.37,2013-09-02 07:08:00,
2013-09-02 03:13:00,73.0,51.0,29.87,North,353,0.0,0.0,46,0.00,CLR,,0.00,WeatherDisplay:10.37,2013-09-02 07:13:00,
2013-09-02 03:18:00,73.0,51.0,29.87,North,353,0.0,0.0,46,0.00,CLR,,0.00,WeatherDisplay:10.37,2013-09-02 07:18:00,
2013-09-02 03:23:00,73.0,51.0,29.87,North,353,0.0,0.0,46,0.00,CLR,,0.00,WeatherDisplay:10.37,2013-09-02 07:23:00,
2013-09-02 03:28:00,73.0,51.0,29.87,North,353,0.0,0.0,46,0.00,CLR,,0.00,WeatherDisplay:10.37,2013-09-02 07:28:00,
2013-09-02 03:33:00,73.0,51.0,29.87,North,3,0.0,0.0,46,0.00,CLR,,0.00,WeatherDisplay:10.37,2013-09-02 07:33:00,
2013-09-02 03:38:00,73.0,51.0,29.87,North,3,0.0,0.0,46,0.00,CLR,,0.00,WeatherDisplay:10.37,2013-09-02 07:38:00,
2013-09-02 03:43:00,73.2,51.2,29.87,North,3,0.0,0.0,46,0.00,CLR,,0.00,WeatherDisplay:10.37,2013-09-02 07:43:00,
2013-09-02 03:48:00,73.2,51.2,29.87,North,3,0.0,0.0,46,0.00,CLR,,0.00,WeatherDisplay:10.37,2013-09-02 07:48:00,
2013-09-02 03:53:00,73.2,51.2,29.87,North,3,0.0,0.0,46,0.00,CLR,,0.00,WeatherDisplay:10.37,2013-09-02 07:53:00,
2013-09-02 03:58:00,73.2,51.2,29.87,North,4,2.3,0.0,46,0.00,CLR,,0.00,WeatherDisplay:10.37,2013-09-02 07:58:00,
2013-09-02 04:03:00,73.2,51.2,29.87,North,4,0.0,0.0,46,0.00,CLR,,0.00,WeatherDisplay:10.37,2013-09-02 08:03:00,
2013-09-02 04:08:00,73.2,51.2,29.87,SE,126,0.0,0.0,46,0.00,CLR,,0.00,WeatherDisplay:10.37,2013-09-02 08:08:00,
2013-09-02 04:13:00,73.2,51.2,29.87,SE,137,5.8,5.8,46,0.00,CLR,,0.00,WeatherDisplay:10.37,2013-09-02 08:13:00,
2013-09-02 04:18:00,73.2,51.2,29.84,SE,137,2.3,0.0,46,0.00,CLR,,0.00,WeatherDisplay:10.37,2013-09-02 08:18:00,
2013-09-02 04:23:00,73.2,51.2,29.84,SE,137,0.0,0.0,46,0.00,CLR,,0.00,WeatherDisplay:10.37,2013-09-02 08:23:00,
2013-09-02 04:28:00,73.2,51.2,29.84,SE,137,0.0,0.0,46,0.00,CLR,,0.00,WeatherDisplay:10.37,2013-09-02 08:28:00,
2013-09-02 04:33:00,73.2,51.2,29.87,SE,137,0.0,0.0,46,0.00,CLR,,0.00,WeatherDisplay:10.37,2013-09-02 08:33:00,
2013-09-02 04:38:00,73.2,51.2,29.87,SE,137,0.0,0.0,46,0.00,CLR,,0.00,WeatherDisplay:10.37,2013-09-02 08:38:00,
2013-09-02 04:43:00,73.2,51.2,29.87,SE,137,0.0,0.0,46,0.00,CLR,,0.00,WeatherDisplay:10.37,2013-09-02 08:43:00,
2013-09-02 04:48:00,73.2,51.2,29.84,SE,137,0.0,0.0,46,0.00,CLR,,0.00,WeatherDisplay:10.37,2013-09-02 08:48:00,
2013-09-02 04:53:00,73.2,51.2,29.84,SE,137,0.0,0.0,46,0.00,CLR,,0.00,WeatherDisplay:10.37,2013-09-02 08:53:00,
2013-09-02 04:58:00,73.2,51.2,29.84,SE,137,0.0,0.0,46,0.00,CLR,,0.00,WeatherDisplay:10.37,2013-09-02 08:58:00,
2013-09-02 05:03:00,73.2,51.2,29.84,SE,137,0.0,0.0,46,0.00,CLR,,0.00,WeatherDisplay:10.37,2013-09-02 09:03:00,
2013-09-02 05:08:00,73.2,51.2,29.84,SE,137,0.0,0.0,46,0.00,CLR,,0.00,WeatherDisplay:10.37,2013-09-02 09:08:00,
2013-09-02 05:13:00,73.2,51.2,29.84,SE,139,2.3,0.0,46,0.00,CLR,,0.00,WeatherDisplay:10.37,2013-09-02 09:13:00,
2013-09-02 05:18:00,73.2,51.2,29.84,SE,139,0.0,0.0,46,0.00,CLR,,0.00,WeatherDisplay:10.37,2013-09-02 09:18:00,
2013-09-02 05:23:00,73.2,51.2,29.84,SE,139,0.0,0.0,46,0.00,CLR,,0.00,WeatherDisplay:10.37,2013-09-02 09:23:00,
2013-09-02 05:28:00,73.2,51.2,29.84,SE,139,0.0,0.0,46,0.00,CLR,,0.00,WeatherDisplay:10.37,2013-09-02 09:28:00,
2013-09-02 05:33:00,73.2,51.2,29.84,SE,139,0.0,0.0,46,0.00,CLR,,0.00,WeatherDisplay:10.37,2013-09-02 09:33:00,
2013-09-02 05:38:00,73.0,51.0,29.84,SE,139,0.0,0.0,46,0.00,CLR,,0.00,WeatherDisplay:10.37,2013-09-02 09:38:00,
2013-09-02 05:43:00,73.0,51.0,29.84,SE,139,0.0,0.0,46,0.00,CLR,,0.00,WeatherDisplay:10.37,2013-09-02 09:43:00,
2013-09-02 05:48:00,73.2,51.2,29.87,SE,139,0.0,0.0,46,0.00,CLR,,0.00,WeatherDisplay:10.37,2013-09-02 09:48:00,
2013-09-02 05:53:00,73.2,51.2,29.87,SE,139,0.0,0.0,46,0.00,CLR,,0.00,WeatherDisplay:10.37,2013-09-02 09:53:00,
2013-09-02 05:58:00,73.0,51.0,29.87,SE,139,0.0,0.0,46,0.00,CLR,,0.00,WeatherDisplay:10.37,2013-09-02 09:58:00,
2013-09-02 06:03:00,73.0,51.0,29.87,SE,139,0.0,0.0,46,0.00,CLR,,0.00,WeatherDisplay:10.37,2013-09-02 10:03:00,
2013-09-02 06:08:00,73.0,51.0,29.87,SE,139,0.0,0.0,46,0.00,CLR,,0.00,WeatherDisplay:10.37,2013-09-02 10:08:00,
2013-09-02 06:13:00,72.7,50.7,29.87,SE,139,0.0,0.0,46,0.00,CLR,,0.00,WeatherDisplay:10.37,2013-09-02 10:13:00,
2013-09-02 06:18:00,72.5,50.5,29.84,SE,139,0.0,0.0,46,0.00,CLR,,0.00,WeatherDisplay:10.37,2013-09-02 10:18:00,
2013-09-02 06:23:00,72.7,51.3,29.84,SE,139,0.0,0.0,47,0.00,CLR,,0.00,WeatherDisplay:10.37,2013-09-02 10:23:00,
2013-09-02 06:28:00,72.5,51.1,29.84,SE,139,0.0,0.0,47,0.00,CLR,,0.00,WeatherDisplay:10.37,2013-09-02 10:28:00,
2013-09-02 06:33:00,72.5,51.7,29.84,SE,139,0.0,0.0,48,0.00,CLR,,0.00,WeatherDisplay:10.37,2013-09-02 10:33:00,
2013-09-02 06:38:00,72.9,52.6,29.84,SE,139,0.0,0.0,49,0.00,CLR,,0.00,WeatherDisplay:10.37,2013-09-02 10:38:00,
2013-09-02 06:43:00,72.9,52.6,29.84,SE,139,0.0,0.0,49,0.00,CLR,,0.00,WeatherDisplay:10.37,2013-09-02 10:43:00,
2013-09-02 06:48:00,73.0,52.7,29.84,SE,139,0.0,0.0,49,0.00,CLR,,0.00,WeatherDisplay:10.37,2013-09-02 10:48:00,
2013-09-02 06:53:00,73.0,53.3,29.84,SE,139,0.0,0.0,50,0.00,CLR,,0.00,WeatherDisplay:10.37,2013-09-02 10:53:00,
2013-09-02 06:58:00,72.9,53.1,29.84,SE,139,0.0,0.0,50,0.00,CLR,,0.00,WeatherDisplay:10.37,2013-09-02 10:58:00,
2013-09-02 07:03:00,72.9,52.6,29.84,SE,139,0.0,0.0,49,0.00,CLR,,0.00,WeatherDisplay:10.37,2013-09-02 11:03:00,
2013-09-02 07:08:00,72.9,53.1,29.84,SE,139,0.0,0.0,50,0.00,CLR,,0.00,WeatherDisplay:10.37,2013-09-02 11:08:00,
2013-09-02 07:13:00,72.9,53.1,29.84,SE,139,0.0,0.0,50,0.00,CLR,,0.00,WeatherDisplay:10.37,2013-09-02 11:13:00,
2013-09-02 07:18:00,72.9,53.1,29.84,SE,139,0.0,0.0,50,0.04,RA,,0.04,WeatherDisplay:10.37,2013-09-02 11:18:00,
2013-09-02 07:23:00,72.9,53.1,29.84,SE,139,0.0,0.0,50,0.04,RA,,0.04,WeatherDisplay:10.37,2013-09-02 11:23:00,
2013-09-02 07:28:00,73.0,53.8,29.84,SE,139,2.3,0.0,51,0.04,CLR,,0.04,WeatherDisplay:10.37,2013-09-02 11:28:00,
2013-09-02 07:33:00,73.0,54.4,29.84,SE,139,0.0,0.0,52,0.04,CLR,,0.04,WeatherDisplay:10.37,2013-09-02 11:33:00,
2013-09-02 07:38:00,73.0,54.4,29.84,SE,139,0.0,0.0,52,0.04,CLR,,0.04,WeatherDisplay:10.37,2013-09-02 11:38:00,
2013-09-02 07:43:00,73.0,54.4,29.84,SE,139,0.0,0.0,52,0.04,CLR,,0.04,WeatherDisplay:10.37,2013-09-02 11:43:00,
2013-09-02 07:48:00,73.0,54.4,29.84,ESE,117,0.0,0.0,52,0.04,CLR,,0.04,WeatherDisplay:10.37,2013-09-02 11:48:00,
2013-09-02 07:53:00,73.2,54.5,29.84,SE,124,0.0,0.0,52,0.04,CLR,,0.04,WeatherDisplay:10.37,2013-09-02 11:53:00,
2013-09-02 07:58:00,73.0,54.4,29.84,East,82,0.0,0.0,52,0.04,CLR,,0.04,WeatherDisplay:10.37,2013-09-02 11:58:00,
2013-09-02 08:03:00,73.2,55.1,29.84,East,82,0.0,0.0,53,0.04,CLR,,0.04,WeatherDisplay:10.37,2013-09-02 12:03:00,
2013-09-02 08:08:00,73.2,55.1,29.84,NNW,339,0.0,0.0,53,0.04,CLR,,0.04,WeatherDisplay:10.37,2013-09-02 12:08:00,
2013-09-02 08:13:00,73.2,55.1,29.84,ESE,113,0.0,0.0,53,0.04,CLR,,0.04,WeatherDisplay:10.37,2013-09-02 12:13:00,
2013-09-02 08:18:00,73.2,55.6,29.84,ESE,113,2.3,0.0,54,0.00,CLR,,0.04,WeatherDisplay:10.37,2013-09-02 12:18:00,
2013-09-02 08:23:00,73.2,55.1,29.84,ESE,113,0.0,0.0,53,0.00,CLR,,0.04,WeatherDisplay:10.37,2013-09-02 12:23:00,
2013-09-02 08:28:00,73.2,54.5,29.84,ESE,113,0.0,0.0,52,0.00,CLR,,0.04,WeatherDisplay:10.37,2013-09-02 12:28:00,
2013-09-02 08:33:00,73.4,54.7,29.84,ESE,113,0.0,0.0,52,0.00,CLR,,0.04,WeatherDisplay:10.37,2013-09-02 12:33:00,
2013-09-02 08:38:00,73.6,55.9,29.84,ESE,113,0.0,0.0,54,0.00,CLR,,0.04,WeatherDisplay:10.37,2013-09-02 12:38:00,
2013-09-02 08:43:00,73.8,55.6,29.84,ESE,113,0.0,0.0,53,0.00,CLR,,0.04,WeatherDisplay:10.37,2013-09-02 12:43:00,
2013-09-02 08:48:00,73.8,56.1,29.84,ESE,113,0.0,0.0,54,0.00,CLR,,0.04,WeatherDisplay:10.37,2013-09-02 12:48:00,
2013-09-02 08:53:00,73.0,52.7,29.84,ESE,113,0.0,0.0,49,0.00,CLR,,0.04,WeatherDisplay:10.37,2013-09-02 12:53:00,
2013-09-02 08:58:00,72.7,53.0,29.84,ESE,113,0.0,0.0,50,0.00,CLR,,0.04,WeatherDisplay:10.37,2013-09-02 12:58:00,
2013-09-02 09:03:00,72.5,52.8,29.84,ESE,113,0.0,0.0,50,0.00,CLR,,0.04,WeatherDisplay:10.37,2013-09-02 13:03:00,
2013-09-02 09:08:00,72.5,53.3,29.84,ESE,113,0.0,0.0,51,0.00,CLR,,0.04,WeatherDisplay:10.37,2013-09-02 13:08:00,
2013-09-02 09:13:00,72.9,54.2,29.84,ESE,113,0.0,0.0,52,0.00,CLR,,0.04,WeatherDisplay:10.37,2013-09-02 13:13:00,
2013-09-02 09:18:00,73.0,53.8,29.84,ESE,113,0.0,0.0,51,0.00,CLR,,0.04,WeatherDisplay:10.37,2013-09-02 13:18:00,
2013-09-02 09:23:00,73.6,54.3,29.84,ESE,113,0.0,0.0,51,0.00,CLR,,0.04,WeatherDisplay:10.37,2013-09-02 13:23:00,
2013-09-02 09:28:00,73.9,54.1,29.84,ESE,113,0.0,0.0,50,0.00,CLR,,0.04,WeatherDisplay:10.37,2013-09-02 13:28:00,
2013-09-02 09:33:00,74.1,53.2,29.84,ESE,113,0.0,0.0,48,0.00,CLR,,0.04,WeatherDisplay:10.37,2013-09-02 13:33:00,
2013-09-02 09:38:00,74.1,52.6,29.84,ESE,113,0.0,0.0,47,0.00,CLR,,0.04,WeatherDisplay:10.37,2013-09-02 13:38:00,
2013-09-02 09:43:00,74.7,53.7,29.84,ESE,113,0.0,0.0,48,0.00,CLR,,0.04,WeatherDisplay:10.37,2013-09-02 13:43:00,
2013-09-02 09:48:00,75.4,53.7,29.84,ESE,113,2.3,0.0,47,0.00,CLR,,0.04,WeatherDisplay:10.37,2013-09-02 13:48:00,
2013-09-02 09:53:00,75.6,52.7,29.84,ESE,113,0.0,0.0,45,0.00,CLR,,0.04,WeatherDisplay:10.37,2013-09-02 13:53:00,
2013-09-02 09:58:00,75.7,52.9,29.84,ESE,113,0.0,0.0,45,0.00,CLR,,0.04,WeatherDisplay:10.37,2013-09-02 13:58:00,
2013-09-02 10:03:00,75.0,51.6,29.84,ESE,113,0.0,0.0,44,0.00,CLR,,0.04,WeatherDisplay:10.37,2013-09-02 14:03:00,
2013-09-02 10:08:00,74.7,51.3,29.84,ESE,113,0.0,0.0,44,0.00,CLR,,0.04,WeatherDisplay:10.37,2013-09-02 14:08:00,
2013-09-02 10:13:00,73.9,50.6,29.84,ESE,113,0.0,0.0,44,0.00,CLR,,0.04,WeatherDisplay:10.37,2013-09-02 14:13:00,
2013-09-02 10:18:00,74.1,51.4,29.87,SE,137,0.0,0.0,45,0.00,CLR,,0.04,WeatherDisplay:10.37,2013-09-02 14:18:00,
2013-09-02 10:23:00,74.1,50.8,29.87,SSE,155,0.0,0.0,44,0.00,CLR,,0.04,WeatherDisplay:10.37,2013-09-02 14:23:00,
2013-09-02 10:28:00,74.5,51.1,29.87,SSE,155,0.0,0.0,44,0.00,CLR,,0.04,WeatherDisplay:10.37,2013-09-02 14:28:00,
2013-09-02 10:33:00,74.8,51.5,29.84,SSE,155,0.0,0.0,44,0.00,CLR,,0.04,WeatherDisplay:10.37,2013-09-02 14:33:00,
2013-09-02 10:38:00,75.2,51.2,29.84,SSE,155,0.0,0.0,43,0.00,CLR,,0.04,WeatherDisplay:10.37,2013-09-02 14:38:00,
2013-09-02 10:43:00,75.0,49.7,29.84,SSE,154,2.3,0.0,41,0.00,CLR,,0.04,WeatherDisplay:10.37,2013-09-02 14:43:00,
2013-09-02 10:48:00,75.2,49.9,29.84,East,81,0.0,0.0,41,0.00,CLR,,0.04,WeatherDisplay:10.37,2013-09-02 14:48:00,
2013-09-02 10:53:00,75.6,50.2,29.84,East,81,0.0,0.0,41,0.00,CLR,,0.04,WeatherDisplay:10.37,2013-09-02 14:53:00,
2013-09-02 10:58:00,75.6,50.2,29.84,SE,145,0.0,0.0,41,0.00,CLR,,0.04,WeatherDisplay:10.37,2013-09-02 14:58:00,
2013-09-02 11:03:00,75.4,50.0,29.84,East,94,0.0,0.0,41,0.00,CLR,,0.04,WeatherDisplay:10.37,2013-09-02 15:03:00,
2013-09-02 11:08:00,75.2,49.9,29.84,East,81,0.0,0.0,41,0.00,CLR,,0.04,WeatherDisplay:10.37,2013-09-02 15:08:00,
2013-09-02 11:13:00,74.8,49.6,29.84,SE,133,3.1,0.0,41,0.00,CLR,,0.04,WeatherDisplay:10.37,2013-09-02 15:13:00,
2013-09-02 11:18:00,74.7,49.4,29.84,ESE,108,0.0,0.0,41,0.00,CLR,,0.04,WeatherDisplay:10.37,2013-09-02 15:18:00,
2013-09-02 11:23:00,74.5,49.9,29.84,ESE,108,0.0,0.0,42,0.00,CLR,,0.04,WeatherDisplay:10.37,2013-09-02 15:23:00,
2013-09-02 11:28:00,74.3,49.7,29.84,ESE,108,0.0,0.0,42,0.00,CLR,,0.04,WeatherDisplay:10.37,2013-09-02 15:28:00,
2013-09-02 11:33:00,73.9,49.4,29.84,SE,124,0.0,0.0,42,0.00,CLR,,0.04,WeatherDisplay:10.37,2013-09-02 15:33:00,
2013-09-02 11:38:00,73.4,48.9,29.84,SE,124,0.0,0.0,42,0.00,CLR,,0.04,WeatherDisplay:10.37,2013-09-02 15:38:00,
2013-09-02 11:43:00,72.9,49.7,29.84,SE,124,0.0,0.0,44,0.00,CLR,,0.04,WeatherDisplay:10.37,2013-09-02 15:43:00,
2013-09-02 11:48:00,72.5,49.9,29.84,SE,124,0.0,0.0,45,0.00,CLR,,0.04,WeatherDisplay:10.37,2013-09-02 15:48:00,
2013-09-02 11:53:00,72.5,49.9,29.84,SE,124,0.0,0.0,45,0.00,CLR,,0.04,WeatherDisplay:10.37,2013-09-02 15:53:00,
2013-09-02 11:58:00,72.5,50.5,29.84,SE,124,0.0,0.0,46,0.04,RA,,0.08,WeatherDisplay:10.37,2013-09-02 15:58:00,
2013-09-02 12:03:00,72.9,50.9,29.84,SE,124,0.0,0.0,46,0.04,RA,,0.08,WeatherDisplay:10.37,2013-09-02 16:03:00,
2013-09-02 12:08:00,72.7,50.7,29.84,SE,124,0.0,0.0,46,0.08,RA,,0.12,WeatherDisplay:10.37,2013-09-02 16:08:00,
2013-09-02 12:13:00,72.9,51.4,29.84,SE,124,0.0,0.0,47,0.08,RA,,0.12,WeatherDisplay:10.37,2013-09-02 16:13:00,
2013-09-02 12:18:00,72.9,51.4,29.84,SE,124,0.0,0.0,47,0.08,,,0.12,WeatherDisplay:10.37,2013-09-02 16:18:00,
2013-09-02 12:23:00,72.9,51.4,29.84,SE,124,0.0,0.0,47,0.12,RA,,0.16,WeatherDisplay:10.37,2013-09-02 16:23:00,
2013-09-02 12:28:00,72.9,51.4,29.84,SE,124,0.0,0.0,47,0.16,RA,,0.20,WeatherDisplay:10.37,2013-09-02 16:28:00,
2013-09-02 12:33:00,72.9,52.0,29.84,SE,124,0.0,0.0,48,0.16,RA,,0.20,WeatherDisplay:10.37,2013-09-02 16:33:00,
2013-09-02 12:38:00,73.0,52.2,29.84,SE,124,0.0,0.0,48,0.16,CLR,,0.20,WeatherDisplay:10.37,2013-09-02 16:38:00,
2013-09-02 12:43:00,73.2,52.3,29.84,SE,124,0.0,0.0,48,0.16,CLR,,0.20,WeatherDisplay:10.37,2013-09-02 16:43:00,
2013-09-02 12:48:00,73.4,53.1,29.81,SE,124,0.0,0.0,49,0.16,CLR,,0.20,WeatherDisplay:10.37,2013-09-02 16:48:00,
2013-09-02 12:53:00,73.6,53.2,29.81,SE,124,0.0,0.0,49,0.16,CLR,,0.20,WeatherDisplay:10.37,2013-09-02 16:53:00,
2013-09-02 12:58:00,73.9,53.6,29.81,SE,124,0.0,0.0,49,0.12,CLR,,0.20,WeatherDisplay:10.37,2013-09-02 16:58:00,
2013-09-02 13:03:00,74.1,53.2,29.81,SE,124,0.0,0.0,48,0.16,RA,,0.24,WeatherDisplay:10.37,2013-09-02 17:03:00,
2013-09-02 13:08:00,73.9,53.6,29.81,SE,124,0.0,0.0,49,0.12,RA,,0.24,WeatherDisplay:10.37,2013-09-02 17:08:00,
2013-09-02 13:13:00,73.9,53.6,29.81,SE,124,0.0,0.0,49,0.12,CLR,,0.24,WeatherDisplay:10.37,2013-09-02 17:13:00,
2013-09-02 13:18:00,73.9,54.1,29.81,SE,124,0.0,0.0,50,0.12,CLR,,0.24,WeatherDisplay:10.37,2013-09-02 17:18:00,
2013-09-02 13:23:00,74.1,54.3,29.81,SE,124,0.0,0.0,50,0.08,CLR,,0.24,WeatherDisplay:10.37,2013-09-02 17:23:00,
2013-09-02 13:28:00,74.5,54.6,29.81,SE,124,0.0,0.0,50,0.04,CLR,,0.24,WeatherDisplay:10.37,2013-09-02 17:28:00,
2013-09-02 13:33:00,75.0,55.7,29.81,SE,142,2.3,0.0,51,0.04,CLR,,0.24,WeatherDisplay:10.37,2013-09-02 17:33:00,
2013-09-02 13:38:00,75.4,56.0,29.81,ENE,65,2.3,0.0,51,0.04,CLR,,0.24,WeatherDisplay:10.37,2013-09-02 17:38:00,
2013-09-02 13:43:00,75.2,55.8,29.81,ENE,65,0.0,0.0,51,0.04,CLR,,0.24,WeatherDisplay:10.37,2013-09-02 17:43:00,
2013-09-02 13:48:00,75.6,55.6,29.81,ENE,65,0.0,0.0,50,0.04,CLR,,0.24,WeatherDisplay:10.37,2013-09-02 17:48:00,
2013-09-02 13:53:00,75.7,55.8,29.81,ENE,65,0.0,0.0,50,0.04,CLR,,0.24,WeatherDisplay:10.37,2013-09-02 17:53:00,
2013-09-02 13:58:00,75.9,56.5,29.81,ENE,65,0.0,0.0,51,0.04,CLR,,0.24,WeatherDisplay:10.37,2013-09-02 17:58:00,
2013-09-02 14:03:00,76.1,56.7,29.81,ENE,65,0.0,0.0,51,0.00,CLR,,0.24,WeatherDisplay:10.37,2013-09-02 18:03:00,
2013-09-02 14:08:00,76.3,56.8,29.81,ENE,65,0.0,0.0,51,0.00,CLR,,0.24,WeatherDisplay:10.37,2013-09-02 18:08:00,
2013-09-02 14:13:00,76.3,56.8,29.81,ENE,65,0.0,0.0,51,0.00,CLR,,0.24,WeatherDisplay:10.37,2013-09-02 18:13:00,
2013-09-02 14:18:00,76.3,55.7,29.78,ENE,65,0.0,0.0,49,0.00,CLR,,0.24,WeatherDisplay:10.37,2013-09-02 18:18:00,
2013-09-02 14:23:00,76.5,55.9,29.78,ENE,65,0.0,0.0,49,0.00,CLR,,0.24,WeatherDisplay:10.37,2013-09-02 18:23:00,
2013-09-02 14:28:00,76.5,55.3,29.78,ENE,65,0.0,0.0,48,0.00,CLR,,0.24,WeatherDisplay:10.37,2013-09-02 18:28:00,
2013-09-02 14:33:00,76.1,55.0,29.78,ENE,65,0.0,0.0,48,0.00,CLR,,0.24,WeatherDisplay:10.37,2013-09-02 18:33:00,
2013-09-02 14:38:00,75.9,54.8,29.78,ENE,65,0.0,0.0,48,0.00,CLR,,0.24,WeatherDisplay:10.37,2013-09-02 18:38:00,
2013-09-02 14:43:00,76.1,56.1,29.78,ENE,65,0.0,0.0,50,0.00,CLR,,0.24,WeatherDisplay:10.37,2013-09-02 18:43:00,
2013-09-02 14:48:00,76.3,56.8,29.78,ENE,65,0.0,0.0,51,0.00,CLR,,0.24,WeatherDisplay:10.37,2013-09-02 18:48:00,
2013-09-02 14:53:00,76.6,56.6,29.78,ENE,65,0.0,0.0,50,0.00,CLR,,0.24,WeatherDisplay:10.37,2013-09-02 18:53:00,
2013-09-02 14:58:00,76.8,56.8,29.78,ENE,65,0.0,0.0,50,0.00,CLR,,0.24,WeatherDisplay:10.37,2013-09-02 18:58:00,
2013-09-02 15:03:00,77.2,57.7,29.78,ENE,65,0.0,0.0,51,0.00,CLR,,0.24,WeatherDisplay:10.37,2013-09-02 19:03:00,
2013-09-02 15:08:00,77.9,57.8,29.78,ENE,65,0.0,0.0,50,0.00,CLR,,0.24,WeatherDisplay:10.37,2013-09-02 19:08:00,
2013-09-02 15:13:00,78.1,56.8,29.78,ENE,65,0.0,0.0,48,0.00,CLR,,0.24,WeatherDisplay:10.37,2013-09-02 19:13:00,
2013-09-02 15:18:00,77.9,56.6,29.78,ENE,65,0.0,0.0,48,0.00,CLR,,0.24,WeatherDisplay:10.37,2013-09-02 19:18:00,
2013-09-02 15:23:00,78.3,56.4,29.78,ENE,65,0.0,0.0,47,0.00,CLR,,0.24,WeatherDisplay:10.37,2013-09-02 19:23:00,
2013-09-02 15:28:00,78.8,56.3,29.78,ENE,65,0.0,0.0,46,0.00,CLR,,0.24,WeatherDisplay:10.37,2013-09-02 19:28:00,
2013-09-02 15:33:00,79.2,55.4,29.78,ENE,65,0.0,0.0,44,0.00,CLR,,0.24,WeatherDisplay:10.37,2013-09-02 19:33:00,
2013-09-02 15:38:00,78.8,54.4,29.78,SSW,204,2.3,0.0,43,0.00,CLR,,0.24,WeatherDisplay:10.37,2013-09-02 19:38:00,
2013-09-02 15:43:00,78.3,53.9,29.78,SSW,204,0.0,0.0,43,0.00,CLR,,0.24,WeatherDisplay:10.37,2013-09-02 19:43:00,
2013-09-02 15:48:00,77.5,53.3,29.78,SSW,205,0.0,0.0,43,0.00,CLR,,0.24,WeatherDisplay:10.37,2013-09-02 19:48:00,
2013-09-02 15:53:00,76.8,53.3,29.78,SSW,205,0.0,0.0,44,0.00,CLR,,0.24,WeatherDisplay:10.37,2013-09-02 19:53:00,
2013-09-02 15:58:00,75.9,53.0,29.78,NNE,15,0.0,0.0,45,0.08,RA,,0.31,WeatherDisplay:10.37,2013-09-02 19:58:00,
2013-09-02 16:03:00,75.7,55.2,29.78,NNE,15,0.0,0.0,49,0.08,RA,,0.31,WeatherDisplay:10.37,2013-09-02 20:03:00,
2013-09-02 16:08:00,75.7,55.8,29.78,NNE,15,0.0,0.0,50,0.08,,,0.31,WeatherDisplay:10.37,2013-09-02 20:08:00,
2013-09-02 16:13:00,75.9,55.9,29.78,NNE,15,0.0,0.0,50,0.08,CLR,,0.31,WeatherDisplay:10.37,2013-09-02 20:13:00,
2013-09-02 16:18:00,75.9,55.4,29.78,NNE,15,0.0,0.0,49,0.08,CLR,,0.31,WeatherDisplay:10.37,2013-09-02 20:18:00,
2013-09-02 16:23:00,76.1,56.1,29.78,NNE,15,0.0,0.0,50,0.08,CLR,,0.31,WeatherDisplay:10.37,2013-09-02 20:23:00,
2013-09-02 16:28:00,76.3,56.3,29.78,NNE,15,0.0,0.0,50,0.08,CLR,,0.31,WeatherDisplay:10.37,2013-09-02 20:28:00,
2013-09-02 16:33:00,76.5,57.0,29.75,NNE,15,0.0,0.0,51,0.08,CLR,,0.31,WeatherDisplay:10.37,2013-09-02 20:33:00,
2013-09-02 16:38:00,76.3,56.8,29.75,NNE,15,0.0,0.0,51,0.08,CLR,,0.31,WeatherDisplay:10.37,2013-09-02 20:38:00,
2013-09-02 16:43:00,76.3,56.8,29.75,NNE,15,0.0,0.0,51,0.08,CLR,,0.31,WeatherDisplay:10.37,2013-09-02 20:43:00,
2013-09-02 16:48:00,76.3,56.8,29.75,NNE,15,0.0,0.0,51,0.08,CLR,,0.31,WeatherDisplay:10.37,2013-09-02 20:48:00,
2013-09-02 16:53:00,76.5,57.0,29.75,NNE,15,0.0,0.0,51,0.08,CLR,,0.31,WeatherDisplay:10.37,2013-09-02 20:53:00,
2013-09-02 16:58:00,76.3,56.8,29.75,NNE,15,0.0,0.0,51,0.00,CLR,,0.31,WeatherDisplay:10.37,2013-09-02 20:58:00,
2013-09-02 17:03:00,76.1,56.1,29.75,SE,129,0.0,0.0,50,0.00,CLR,,0.31,WeatherDisplay:10.37,2013-09-02 21:03:00,
2013-09-02 17:08:00,75.7,55.8,29.75,SE,129,0.0,0.0,50,0.00,CLR,,0.31,WeatherDisplay:10.37,2013-09-02 21:08:00,
2013-09-02 17:13:00,75.7,56.3,29.75,SE,129,0.0,0.0,51,0.00,CLR,,0.31,WeatherDisplay:10.37,2013-09-02 21:13:00,
2013-09-02 17:18:00,75.4,56.0,29.75,SE,129,0.0,0.0,51,0.00,CLR,,0.31,WeatherDisplay:10.37,2013-09-02 21:18:00,
2013-09-02 17:23:00,75.2,56.4,29.75,SE,129,0.0,0.0,52,0.00,CLR,,0.31,WeatherDisplay:10.37,2013-09-02 21:23:00,
2013-09-02 17:28:00,75.0,56.2,29.75,West,267,0.0,0.0,52,0.00,CLR,,0.31,WeatherDisplay:10.37,2013-09-02 21:28:00,
2013-09-02 17:33:00,75.0,56.7,29.75,West,267,0.0,0.0,53,0.00,CLR,,0.31,WeatherDisplay:10.37,2013-09-02 21:33:00,
2013-09-02 17:38:00,75.0,56.7,29.75,West,267,0.0,0.0,53,0.00,CLR,,0.31,WeatherDisplay:10.37,2013-09-02 21:38:00,
2013-09-02 17:43:00,75.0,56.7,29.75,West,267,0.0,0.0,53,0.00,CLR,,0.31,WeatherDisplay:10.37,2013-09-02 21:43:00,
2013-09-02 17:48:00,75.0,56.7,29.75,West,267,0.0,0.0,53,0.00,CLR,,0.31,WeatherDisplay:10.37,2013-09-02 21:48:00,
2013-09-02 17:53:00,75.0,57.2,29.75,West,267,0.0,0.0,54,0.00,CLR,,0.31,WeatherDisplay:10.37,2013-09-02 21:53:00,
2013-09-02 17:58:00,74.8,57.1,29.75,West,267,0.0,0.0,54,0.00,CLR,,0.31,WeatherDisplay:10.37,2013-09-02 21:58:00,
2013-09-02 18:03:00,75.2,57.9,29.75,West,267,0.0,0.0,55,0.00,CLR,,0.31,WeatherDisplay:10.37,2013-09-02 22:03:00,
2013-09-02 18:08:00,75.0,57.2,29.75,West,267,0.0,0.0,54,0.00,CLR,,0.31,WeatherDisplay:10.37,2013-09-02 22:08:00,
2013-09-02 18:13:00,74.8,58.1,29.75,West,267,0.0,0.0,56,0.00,CLR,,0.31,WeatherDisplay:10.37,2013-09-02 22:13:00,
2013-09-02 18:18:00,75.0,59.2,29.75,West,267,0.0,0.0,58,0.00,CLR,,0.31,WeatherDisplay:10.37,2013-09-02 22:18:00,
2013-09-02 18:23:00,74.8,59.5,29.75,West,267,0.0,0.0,59,0.00,CLR,,0.31,WeatherDisplay:10.37,2013-09-02 22:23:00,
2013-09-02 18:28:00,74.8,59.1,29.75,West,267,0.0,0.0,58,0.00,CLR,,0.31,WeatherDisplay:10.37,2013-09-02 22:28:00,
2013-09-02 18:33:00,74.8,60.0,29.75,West,267,0.0,0.0,60,0.00,CLR,,0.31,WeatherDisplay:10.37,2013-09-02 22:33:00,
2013-09-02 18:38:00,74.8,59.5,29.75,West,267,0.0,0.0,59,0.00,CLR,,0.31,WeatherDisplay:10.37,2013-09-02 22:38:00,
2013-09-02 18:43:00,75.2,60.8,29.75,West,267,0.0,0.0,61,0.00,CLR,,0.31,WeatherDisplay:10.37,2013-09-02 22:43:00,
2013-09-02 18:48:00,75.0,62.9,29.75,West,267,0.0,0.0,66,0.00,CLR,,0.31,WeatherDisplay:10.37,2013-09-02 22:48:00,
2013-09-02 18:53:00,75.0,62.0,29.75,West,267,0.0,0.0,64,0.00,CLR,,0.31,WeatherDisplay:10.37,2013-09-02 22:53:00,
2013-09-02 18:58:00,75.0,62.9,29.75,West,267,0.0,0.0,66,0.00,CLR,,0.31,WeatherDisplay:10.37,2013-09-02 22:58:00,
2013-09-02 19:03:00,75.0,62.5,29.75,West,267,0.0,0.0,65,0.00,CLR,,0.31,WeatherDisplay:10.37,2013-09-02 23:03:00,
2013-09-02 19:08:00,74.8,61.8,29.75,West,267,0.0,0.0,64,0.00,CLR,,0.31,WeatherDisplay:10.37,2013-09-02 23:08:00,
2013-09-02 19:13:00,74.8,60.9,29.75,West,267,0.0,0.0,62,0.00,CLR,,0.31,WeatherDisplay:10.37,2013-09-02 23:13:00,
2013-09-02 19:18:00,74.8,62.3,29.75,West,267,0.0,0.0,65,0.00,CLR,,0.31,WeatherDisplay:10.37,2013-09-02 23:18:00,
2013-09-02 19:23:00,75.0,62.9,29.75,West,267,0.0,0.0,66,0.00,CLR,,0.31,WeatherDisplay:10.37,2013-09-02 23:23:00,
2013-09-02 19:28:00,75.0,63.7,29.75,West,267,0.0,0.0,68,0.00,CLR,,0.31,WeatherDisplay:10.37,2013-09-02 23:28:00,
2013-09-02 19:33:00,75.0,64.2,29.75,West,267,0.0,0.0,69,0.00,CLR,,0.31,WeatherDisplay:10.37,2013-09-02 23:33:00,
2013-09-02 19:38:00,75.0,63.3,29.75,West,267,0.0,0.0,67,0.00,CLR,,0.31,WeatherDisplay:10.37,2013-09-02 23:38:00,
2013-09-02 19:43:00,74.8,62.3,29.75,West,267,0.0,0.0,65,0.00,CLR,,0.31,WeatherDisplay:10.37,2013-09-02 23:43:00,
2013-09-02 19:48:00,74.8,61.8,29.75,West,267,0.0,0.0,64,0.00,CLR,,0.31,WeatherDisplay:10.37,2013-09-02 23:48:00,
2013-09-02 19:53:00,74.7,62.5,29.75,West,267,0.0,0.0,66,0.00,CLR,,0.31,WeatherDisplay:10.37,2013-09-02 23:53:00,
2013-09-02 19:58:00,74.7,63.0,29.75,West,267,0.0,0.0,67,0.00,CLR,,0.31,WeatherDisplay:10.37,2013-09-02 23:58:00,
2013-09-02 20:03:00,74.7,63.4,29.75,West,267,0.0,0.0,68,0.00,CLR,,0.31,WeatherDisplay:10.37,2013-09-03 00:03:00,
2013-09-02 20:08:00,74.7,64.6,29.75,West,267,0.0,0.0,71,0.00,CLR,,0.31,WeatherDisplay:10.37,2013-09-03 00:08:00,
2013-09-02 20:13:00,74.5,64.1,29.75,West,267,0.0,0.0,70,0.00,CLR,,0.31,WeatherDisplay:10.37,2013-09-03 00:13:00,
2013-09-02 20:18:00,74.5,63.6,29.75,West,267,0.0,0.0,69,0.00,CLR,,0.31,WeatherDisplay:10.37,2013-09-03 00:18:00,
2013-09-02 20:23:00,74.5,63.6,29.75,West,267,0.0,0.0,69,0.00,CLR,,0.31,WeatherDisplay:10.37,2013-09-03 00:23:00,
2013-09-02 20:28:00,74.3,63.1,29.75,West,267,0.0,0.0,68,0.00,CLR,,0.31,WeatherDisplay:10.37,2013-09-03 00:28:00,
2013-09-02 20:33:00,74.3,62.6,29.75,West,267,0.0,0.0,67,0.00,CLR,,0.31,WeatherDisplay:10.37,2013-09-03 00:33:00,
2013-09-02 20:38:00,74.1,62.0,29.75,West,267,0.0,0.0,66,0.00,CLR,,0.31,WeatherDisplay:10.37,2013-09-03 00:38:00,
2013-09-02 20:43:00,74.1,64.1,29.75,West,267,0.0,0.0,71,0.00,CLR,,0.31,WeatherDisplay:10.37,2013-09-03 00:43:00,
2013-09-02 20:48:00,74.3,66.2,29.75,West,267,0.0,0.0,76,0.00,CLR,,0.31,WeatherDisplay:10.37,2013-09-03 00:48:00,
2013-09-02 20:53:00,74.3,65.5,29.75,West,267,0.0,0.0,74,0.00,CLR,,0.31,WeatherDisplay:10.37,2013-09-03 00:53:00,
2013-09-02 20:58:00,74.1,63.7,29.75,West,267,0.0,0.0,70,0.00,CLR,,0.31,WeatherDisplay:10.37,2013-09-03 00:58:00,
2013-09-02 21:03:00,73.9,62.7,29.75,West,267,0.0,0.0,68,0.00,CLR,,0.31,WeatherDisplay:10.37,2013-09-03 01:03:00,
2013-09-02 21:08:00,73.9,63.1,29.75,West,267,0.0,0.0,69,0.00,CLR,,0.31,WeatherDisplay:10.37,2013-09-03 01:08:00,
2013-09-02 21:13:00,73.9,63.9,29.75,West,267,0.0,0.0,71,0.00,CLR,,0.31,WeatherDisplay:10.37,2013-09-03 01:13:00,
2013-09-02 21:18:00,73.9,64.3,29.78,West,267,0.0,0.0,72,0.00,CLR,,0.31,WeatherDisplay:10.37,2013-09-03 01:18:00,
2013-09-02 21:23:00,73.9,64.7,29.78,West,267,0.0,0.0,73,0.00,CLR,,0.31,WeatherDisplay:10.37,2013-09-03 01:23:00,
2013-09-02 21:28:00,73.9,65.5,29.78,West,267,0.0,0.0,75,0.00,CLR,,0.31,WeatherDisplay:10.37,2013-09-03 01:28:00,
2013-09-02 21:33:00,73.9,66.3,29.75,West,267,0.0,0.0,77,0.00,CLR,,0.31,WeatherDisplay:10.37,2013-09-03 01:33:00,
2013-09-02 21:38:00,73.9,65.5,29.75,West,267,0.0,0.0,75,0.00,CLR,,0.31,WeatherDisplay:10.37,2013-09-03 01:38:00,
2013-09-02 21:43:00,73.9,65.1,29.75,West,267,0.0,0.0,74,0.00,CLR,,0.31,WeatherDisplay:10.37,2013-09-03 01:43:00,
2013-09-02 21:48:00,73.8,65.0,29.75,West,267,0.0,0.0,74,0.00,CLR,,0.31,WeatherDisplay:10.37,2013-09-03 01:48:00,
2013-09-02 21:53:00,73.8,64.6,29.75,West,267,0.0,0.0,73,0.00,CLR,,0.31,WeatherDisplay:10.37,2013-09-03 01:53:00,
2013-09-02 21:58:00,73.8,65.0,29.75,West,267,0.0,0.0,74,0.00,CLR,,0.31,WeatherDisplay:10.37,2013-09-03 01:58:00,
2013-09-02 22:03:00,73.8,64.6,29.78,West,267,0.0,0.0,73,0.00,CLR,,0.31,WeatherDisplay:10.37,2013-09-03 02:03:00,
2013-09-02 22:08:00,73.8,65.0,29.78,West,267,0.0,0.0,74,0.00,CLR,,0.31,WeatherDisplay:10.37,2013-09-03 02:08:00,
2013-09-02 22:13:00,73.8,65.0,29.78,West,267,0.0,0.0,74,0.00,CLR,,0.31,WeatherDisplay:10.37,2013-09-03 02:13:00,
2013-09-02 22:18:00,73.6,64.8,29.78,West,267,0.0,0.0,74,0.00,CLR,,0.31,WeatherDisplay:10.37,2013-09-03 02:18:00,
2013-09-02 22:23:00,73.8,65.0,29.78,West,267,0.0,0.0,74,0.00,CLR,,0.31,WeatherDisplay:10.37,2013-09-03 02:23:00,
2013-09-02 22:28:00,73.8,65.3,29.78,West,267,0.0,0.0,75,0.00,CLR,,0.31,WeatherDisplay:10.37,2013-09-03 02:28:00,
2013-09-02 22:33:00,73.8,65.3,29.75,West,267,0.0,0.0,75,0.00,CLR,,0.31,WeatherDisplay:10.37,2013-09-03 02:33:00,
2013-09-02 22:38:00,73.8,65.3,29.75,West,267,0.0,0.0,75,0.00,CLR,,0.31,WeatherDisplay:10.37,2013-09-03 02:38:00,
2013-09-02 22:43:00,73.8,65.0,29.75,West,267,0.0,0.0,74,0.00,CLR,,0.31,WeatherDisplay:10.37,2013-09-03 02:43:00,
2013-09-02 22:48:00,73.8,64.6,29.75,West,267,0.0,0.0,73,0.00,CLR,,0.31,WeatherDisplay:10.37,2013-09-03 02:48:00,
2013-09-02 22:53:00,73.6,64.0,29.75,West,267,0.0,0.0,72,0.00,CLR,,0.31,WeatherDisplay:10.37,2013-09-03 02:53:00,
2013-09-02 22:58:00,73.6,63.6,29.75,West,267,0.0,0.0,71,0.00,CLR,,0.31,WeatherDisplay:10.37,2013-09-03 02:58:00,
2013-09-02 23:03:00,73.6,64.4,29.75,West,267,0.0,0.0,73,0.00,CLR,,0.31,WeatherDisplay:10.37,2013-09-03 03:03:00,
2013-09-02 23:08:00,73.6,64.8,29.75,West,267,0.0,0.0,74,0.00,CLR,,0.31,WeatherDisplay:10.37,2013-09-03 03:08:00,
2013-09-02 23:13:00,73.6,65.2,29.75,West,267,0.0,0.0,75,0.00,CLR,,0.31,WeatherDisplay:10.37,2013-09-03 03:13:00,
2013-09-02 23:18:00,73.6,65.5,29.75,West,267,0.0,0.0,76,0.00,CLR,,0.31,WeatherDisplay:10.37,2013-09-03 03:18:00,
2013-09-02 23:23:00,73.8,65.7,29.75,West,267,0.0,0.0,76,0.00,CLR,,0.31,WeatherDisplay:10.37,2013-09-03 03:23:00,
2013-09-02 23:28:00,73.9,65.9,29.75,West,267,0.0,0.0,76,0.00,CLR,,0.31,WeatherDisplay:10.37,2013-09-03 03:28:00,
2013-09-02 23:33:00,73.9,66.3,29.75,West,267,0.0,0.0,77,0.00,CLR,,0.31,WeatherDisplay:10.37,2013-09-03 03:33:00,
2013-09-02 23:38:00,73.9,66.3,29.75,West,267,0.0,0.0,77,0.00,CLR,,0.31,WeatherDisplay:10.37,2013-09-03 03:38:00,
2013-09-02 23:43:00,73.9,66.3,29.75,West,267,0.0,0.0,77,0.00,CLR,,0.31,WeatherDisplay:10.37,2013-09-03 03:43:00,
2013-09-02 23:48:00,74.1,66.4,29.78,West,267,0.0,0.0,77,0.00,CLR,,0.31,WeatherDisplay:10.37,2013-09-03 03:48:00,
2013-09-02 23:53:00,74.1,66.4,29.78,West,267,0.0,0.0,77,0.00,CLR,,0.31,WeatherDisplay:10.37,2013-09-03 03:53:00,
2013-09-02 23:58:00,74.1,66.4,29.78,West,267,0.0,0.0,77,0.00,CLR,,0.31,WeatherDisplay:10.37,2013-09-03 03:58:00,